Wind_Speed
34 34 34 33 32 31 30 29 28 28 27 26 25 25 24 23 22 21 20 20 19 19 18 18 17 17 17 16 17 16 17 17 17 16 16 17 17 17 17 17 17 17 17
35 35 34 34 34 33 31 30 30 29 29 28 27 27 25 25 24 23 22 22 21 20 20 20 19 19 18 18 18 18 18 18 18 18 18 18 18 18 19 18 18 18 18
37 36 36 35 35 34 33 31 31 30 31 30 30 29 28 27 26 25 24 23 23 22 22 22 21 20 20 20 20 20 20 19 20 20 20 20 19 19 20 20 19 19 20
39 39 38 37 36 35 34 33 33 32 31 31 31 31 30 29 28 27 26 25 25 24 24 23 23 22 22 22 22 22 22 21 21 21 21 21 21 21 21 20 20 21 21
39 39 39 38 38 37 36 35 35 34 33 32 31 31 31 30 30 30 28 27 27 26 26 25 25 24 24 24 23 23 23 23 22 22 22 22 22 22 22 22 22 22 22
41 40 39 40 39 38 37 37 36 35 34 34 33 32 32 32 32 31 30 30 29 28 27 27 27 26 26 25 25 25 24 24 24 23 23 23 23 23 23 23 23 23 23
40 41 40 40 39 38 38 38 37 36 36 36 35 35 34 33 33 33 32 32 31 30 29 29 29 28 27 27 27 27 26 26 25 25 25 25 25 25 25 24 24 24 24
41 41 42 41 40 40 39 39 39 38 37 36 36 36 36 35 34 34 34 34 34 33 31 30 30 30 29 29 28 28 28 27 27 26 26 26 26 26 26 26 26 25 26
43 42 42 42 42 41 41 40 39 38 39 38 38 37 37 36 36 35 35 35 35 35 34 32 32 31 31 30 30 29 29 29 29 28 27 27 27 26 27 27 27 27 27
44 44 44 43 42 42 42 41 41 40 39 39 39 39 38 38 37 37 36 36 35 36 36 35 34 33 33 33 32 31 31 30 30 29 29 28 27 27 28 28 28 28 29
45 45 44 43 43 42 42 42 41 41 41 40 40 40 39 39 39 38 37 36 36 37 37 36 36 36 35 35 34 34 33 32 31 31 30 30 29 29 29 29 29 30 30
44 45 45 44 43 43 44 43 43 42 41 41 41 41 41 41 41 40 40 39 39 38 38 38 38 37 37 36 36 35 34 33 32 32 32 32 31 31 31 30 31 31 31
45 45 46 45 44 44 44 44 44 44 43 43 43 43 43 43 42 42 42 42 41 40 40 39 39 39 38 38 37 37 36 35 34 34 33 32 32 32 32 33 33 33 33
46 44 46 46 45 45 45 45 45 45 45 45 45 45 45 44 44 44 44 43 42 41 41 41 41 40 39 39 39 39 38 37 36 36 35 34 34 34 34 34 34 34 35
47 45 45 47 47 47 46 46 46 47 47 46 46 47 46 46 46 46 46 46 45 44 43 42 42 41 41 40 39 39 39 38 38 37 37 36 36 36 36 36 36 36 36
47 48 47 46 47 47 46 46 46 47 47 47 47 46 47 47 46 47 47 46 46 45 44 43 42 42 42 41 41 40 40 40 40 39 39 38 38 38 38 38 38 38 38
48 48 49 48 47 47 47 48 49 48 48 47 47 47 47 47 47 47 47 47 46 46 45 44 43 42 41 42 41 41 41 41 41 40 40 40 39 39 39 39 39 39 39
48 49 49 49 49 49 50 49 49 49 49 48 48 48 48 48 48 48 48 48 48 48 47 46 45 44 43 42 42 42 42 43 42 42 42 42 41 40 41 41 41 40 41
48 48 49 49 49 49 49 48 48 48 48 47 47 47 47 48 48 48 48 48 48 47 47 46 45 45 45 44 44 42 42 43 44 43 43 44 43 42 42 42 42 42 41
46 47 47 47 47 47 48 48 48 49 48 48 48 47 48 48 48 48 48 47 47 47 47 46 46 47 47 46 45 44 43 44 45 45 44 44 44 44 44 44 44 43 43
44 46 46 46 46 46 47 47 48 48 49 49 48 48 48 49 49 49 49 49 48 47 47 47 46 47 48 48 46 45 45 45 45 46 45 45 45 45 45 45 45 45 45
44 45 45 46 46 45 46 46 47 47 48 48 48 48 49 49 49 50 50 50 50 49 49 48 47 47 47 48 48 47 47 47 47 47 47 47 47 46 46 47 46 46 46
45 45 45 45 44 44 45 45 46 46 46 47 47 47 47 48 49 50 50 50 50 49 50 49 48 47 48 48 49 50 50 50 50 49 49 48 48 48 48 48 48 47 47
44 43 43 44 44 44 45 45 45 45 45 46 46 46 45 45 47 48 49 49 49 49 49 50 50 49 49 50 51 51 52 52 51 51 51 49 49 49 49 49 48 48 49
43 43 43 43 43 43 44 44 44 45 46 47 47 47 47 47 47 47 48 49 49 50 49 50 50 50 50 50 50 51 52 52 52 51 51 50 49 49 49 49 49 49 50
42 43 43 43 43 43 44 44 45 45 46 47 47 47 48 48 48 48 48 48 48 49 49 50 51 50 50 50 50 51 53 53 52 52 52 52 51 51 51 50 50 50 50
Wind_Direction
239 240 241 241 241 240 242 242 244 246 248 250 251 252 253 255 256 258 258 258 259 262 265 268 272 274 276 280 283 283 284 284 286 289 292 294 294 295 298 297 298 300 302
239 239 240 240 242 242 243 244 245 246 248 250 251 252 253 254 256 258 258 259 261 261 265 268 271 273 275 278 281 281 282 284 286 287 289 291 292 293 295 295 296 297 298
238 239 240 241 243 243 245 245 246 248 249 250 251 252 253 254 256 256 257 259 261 262 264 268 269 271 273 276 279 281 281 283 285 286 287 288 289 291 293 293 293 294 296
238 240 240 242 242 244 246 246 247 248 249 250 251 252 252 254 254 255 257 259 261 263 265 267 268 270 273 275 278 280 281 281 283 285 287 287 287 288 290 292 291 292 294
241 241 242 244 245 245 245 247 248 249 249 250 251 252 253 254 255 255 257 258 260 262 264 266 268 270 273 274 276 278 278 279 281 282 284 286 286 286 287 290 290 291 292
241 241 242 245 246 246 246 247 248 249 250 251 252 252 253 254 255 256 257 259 259 260 262 265 267 269 271 272 274 275 277 279 280 280 282 284 285 285 286 288 288 290 291
243 243 243 245 247 246 247 248 248 249 251 252 253 253 253 254 255 256 257 258 259 260 261 264 266 267 269 271 272 274 276 277 278 280 281 282 284 285 285 287 289 290 291
244 245 245 245 248 249 248 249 249 250 252 253 254 254 254 254 255 257 257 259 260 261 262 263 265 266 267 269 270 272 274 276 277 279 281 282 283 283 283 285 287 290 291
246 247 247 248 249 250 249 250 250 252 253 253 254 255 255 255 256 257 258 259 260 261 262 264 265 265 266 267 269 271 273 274 276 277 279 281 282 283 283 284 286 288 290
247 248 249 249 250 251 250 250 250 252 253 253 253 254 255 256 256 257 257 258 259 261 263 264 264 264 266 267 268 269 271 272 275 277 277 280 282 283 283 283 285 287 288
247 248 250 249 249 250 250 250 250 252 252 253 253 254 255 256 258 258 257 258 259 261 262 264 264 264 265 266 267 268 269 270 272 275 276 277 279 281 284 284 284 286 287
247 248 248 249 250 250 251 251 250 251 252 252 253 254 255 256 258 259 259 260 260 261 262 263 264 264 265 265 266 266 267 269 270 272 274 276 278 280 282 284 284 284 285
247 248 248 249 250 251 251 252 252 253 253 253 254 254 254 255 257 258 259 260 260 261 262 263 264 263 264 265 264 265 266 267 269 270 272 274 277 278 280 282 285 285 284
247 249 249 250 250 251 251 252 253 254 255 255 256 256 256 255 256 257 258 259 259 260 261 261 263 263 263 264 264 264 265 266 267 268 270 272 275 277 279 281 284 285 284
246 247 249 250 250 250 251 254 255 255 255 257 257 257 257 257 257 258 258 258 259 261 261 261 262 263 264 263 263 264 265 265 266 267 269 271 273 275 278 280 282 284 284
247 248 250 251 250 250 251 253 255 255 255 255 256 258 258 258 258 258 259 259 259 260 260 260 262 263 263 263 262 263 264 264 265 267 268 270 272 274 277 278 281 283 284
248 249 251 252 252 252 252 254 254 255 255 255 257 258 258 258 258 258 259 260 259 260 260 259 261 262 263 263 262 263 263 263 265 267 269 270 272 274 276 278 280 282 284
250 252 251 252 254 254 253 254 254 254 255 255 255 256 257 258 258 258 259 259 260 259 259 259 259 261 263 264 263 263 263 264 265 267 268 269 271 273 275 277 279 281 282
251 252 253 254 255 254 254 254 254 254 254 255 256 256 257 257 257 258 259 259 259 258 259 259 260 261 263 264 265 265 264 264 265 266 268 269 271 273 275 276 278 280 281
251 252 253 253 254 255 255 255 255 255 254 256 256 256 257 257 258 258 258 258 258 258 259 260 261 262 263 264 265 264 265 264 265 266 268 269 271 273 274 275 277 279 280
250 251 252 252 254 255 256 256 255 254 254 255 255 256 257 258 258 257 257 257 258 257 259 260 262 262 262 262 264 264 265 265 265 266 267 268 270 272 274 275 276 278 278
252 253 253 254 255 255 255 255 256 255 255 256 256 257 257 257 258 258 257 257 258 258 259 261 262 261 261 262 262 263 264 265 265 266 267 267 269 271 273 275 276 277 278
256 256 256 256 256 256 256 256 256 256 256 255 256 257 257 257 257 257 257 258 259 260 260 261 261 261 261 261 263 263 264 265 265 266 267 268 269 271 273 275 275 276 277
256 256 256 256 256 257 257 256 256 255 255 255 255 255 255 256 257 257 257 258 259 261 261 261 261 261 261 262 263 264 265 265 265 266 267 268 270 271 273 274 275 276 277
255 256 256 256 257 257 257 257 256 255 255 255 255 255 256 257 258 259 259 259 260 261 261 261 260 261 262 263 264 264 264 265 265 265 267 268 269 271 273 273 273 275 277
256 257 257 257 257 257 257 258 258 257 256 256 256 257 257 257 258 259 260 260 260 261 261 261 260 261 262 263 263 264 264 265 265 265 266 268 269 271 272 273 274 275 277
Height
5800 5803 5805 5808 5810 5812 5815 5817 5819 5822 5824 5825 5827 5829 5830 5832 5833 5834 5835 5836 5837 5837 5838 5839 5839 5839 5839 5839 5839 5839 5839 5838 5838 5837 5836 5835 5835 5834 5833 5831 5830 5829 5828
5792 5795 5798 5800 5803 5806 5808 5811 5813 5815 5818 5820 5821 5823 5824 5826 5828 5829 5830 5831 5832 5833 5834 5834 5835 5835 5835 5835 5835 5835 5834 5834 5834 5833 5833 5832 5831 5830 5829 5828 5827 5825 5824
5784 5788 5791 5793 5796 5798 5801 5803 5806 5808 5811 5813 5815 5817 5818 5820 5822 5823 5825 5826 5827 5828 5829 5829 5830 5830 5830 5830 5830 5830 5830 5830 5830 5829 5828 5828 5827 5826 5825 5824 5823 5821 5820
5776 5779 5783 5786 5788 5791 5794 5796 5799 5801 5803 5806 5808 5810 5812 5814 5816 5817 5819 5820 5821 5822 5823 5824 5824 5825 5825 5825 5825 5825 5825 5825 5825 5824 5823 5823 5822 5821 5820 5819 5818 5817 5816
5768 5771 5774 5777 5780 5783 5786 5789 5792 5794 5796 5798 5801 5803 5805 5807 5809 5811 5812 5814 5815 5816 5817 5818 5819 5819 5820 5820 5820 5820 5820 5820 5819 5819 5818 5818 5817 5816 5815 5814 5813 5812 5811
5759 5762 5766 5769 5772 5774 5778 5780 5783 5786 5788 5790 5793 5795 5797 5799 5801 5803 5805 5807 5808 5809 5810 5811 5812 5813 5813 5814 5814 5814 5814 5814 5813 5813 5813 5812 5812 5811 5810 5809 5808 5807 5805
5750 5754 5757 5760 5763 5766 5769 5772 5775 5777 5780 5782 5784 5787 5789 5791 5793 5795 5797 5799 5800 5802 5803 5804 5805 5806 5807 5807 5808 5808 5808 5808 5807 5807 5807 5806 5806 5805 5804 5803 5802 5801 5800
5741 5744 5747 5751 5754 5757 5760 5762 5765 5768 5770 5773 5775 5777 5780 5783 5784 5787 5789 5791 5792 5794 5795 5796 5798 5798 5799 5800 5801 5801 5801 5801 5801 5800 5800 5800 5799 5799 5798 5797 5796 5795 5793
5732 5735 5738 5741 5744 5747 5750 5753 5756 5759 5761 5764 5766 5768 5770 5773 5775 5778 5779 5781 5783 5785 5787 5788 5789 5790 5791 5792 5793 5794 5794 5794 5794 5794 5793 5793 5793 5792 5791 5790 5789 5788 5787
5722 5725 5728 5731 5734 5737 5740 5743 5746 5749 5752 5754 5757 5759 5761 5763 5766 5769 5771 5772 5774 5775 5777 5778 5780 5781 5783 5784 5785 5786 5786 5786 5786 5786 5786 5786 5785 5785 5784 5783 5782 5781 5779
5712 5715 5718 5721 5724 5727 5730 5733 5736 5739 5741 5744 5747 5749 5751 5754 5756 5758 5761 5763 5765 5766 5767 5769 5771 5772 5773 5775 5776 5777 5777 5778 5778 5778 5778 5778 5778 5777 5776 5776 5775 5773 5772
5701 5704 5707 5710 5713 5716 5719 5722 5725 5728 5731 5734 5736 5739 5741 5743 5746 5748 5750 5752 5754 5756 5757 5759 5761 5762 5764 5765 5766 5767 5768 5769 5770 5770 5770 5770 5770 5769 5768 5767 5766 5765 5764
5690 5694 5697 5700 5703 5706 5708 5711 5714 5717 5720 5723 5725 5728 5730 5733 5735 5737 5739 5741 5744 5746 5747 5749 5750 5752 5753 5754 5756 5757 5758 5759 5760 5761 5761 5761 5761 5760 5760 5759 5758 5756 5755
5680 5683 5686 5688 5692 5694 5697 5700 5703 5706 5709 5711 5714 5716 5719 5721 5723 5726 5728 5730 5732 5735 5737 5738 5739 5740 5742 5744 5745 5746 5748 5749 5750 5751 5751 5751 5751 5751 5751 5750 5748 5747 5745
5668 5671 5674 5677 5680 5683 5686 5689 5692 5695 5698 5700 5703 5705 5707 5709 5711 5714 5716 5719 5721 5723 5726 5727 5728 5729 5731 5733 5734 5736 5737 5739 5740 5741 5741 5741 5741 5741 5741 5740 5739 5737 5736
5656 5660 5663 5666 5668 5671 5674 5677 5680 5683 5686 5688 5691 5693 5695 5698 5700 5702 5704 5707 5709 5712 5714 5716 5717 5718 5719 5721 5723 5725 5726 5728 5729 5730 5730 5731 5731 5731 5730 5730 5729 5727 5726
5645 5648 5651 5654 5657 5659 5662 5665 5668 5671 5673 5676 5678 5681 5684 5686 5688 5690 5692 5695 5697 5699 5702 5705 5706 5707 5708 5710 5711 5713 5715 5716 5718 5719 5719 5720 5720 5720 5719 5719 5718 5717 5715
5633 5636 5639 5642 5644 5647 5649 5652 5655 5658 5661 5663 5666 5669 5671 5673 5676 5678 5681 5683 5686 5687 5690 5693 5694 5696 5697 5698 5700 5701 5703 5705 5706 5707 5708 5709 5709 5709 5708 5708 5707 5706 5704
5620 5623 5626 5629 5631 5634 5636 5639 5642 5645 5648 5650 5653 5656 5658 5660 5663 5666 5668 5671 5673 5675 5677 5680 5683 5684 5685 5687 5688 5690 5691 5693 5694 5695 5696 5697 5697 5697 5697 5696 5696 5694 5693
5608 5611 5614 5616 5619 5621 5624 5626 5629 5632 5635 5638 5640 5643 5645 5647 5650 5653 5655 5658 5660 5662 5665 5667 5670 5672 5673 5674 5676 5678 5679 5680 5682 5683 5684 5684 5685 5685 5685 5684 5684 5682 5681
5595 5598 5601 5604 5606 5609 5611 5613 5616 5619 5622 5624 5627 5629 5632 5634 5637 5639 5642 5645 5647 5649 5652 5654 5656 5658 5660 5662 5664 5665 5667 5668 5669 5670 5671 5672 5672 5672 5672 5671 5671 5670 5668
5584 5587 5589 5591 5594 5596 5598 5600 5603 5605 5608 5611 5613 5616 5618 5621 5623 5626 5628 5631 5634 5636 5638 5640 5643 5645 5647 5648 5650 5652 5654 5655 5657 5658 5658 5659 5659 5659 5659 5659 5658 5657 5656
5573 5575 5577 5579 5581 5583 5585 5587 5589 5592 5595 5597 5599 5602 5604 5607 5609 5612 5615 5617 5620 5622 5624 5627 5629 5631 5633 5635 5637 5639 5640 5641 5642 5643 5644 5645 5645 5645 5645 5645 5644 5643 5642
5561 5563 5565 5567 5569 5571 5572 5574 5576 5578 5581 5583 5586 5588 5591 5594 5596 5598 5601 5603 5606 5608 5610 5613 5615 5617 5618 5620 5622 5624 5625 5626 5628 5628 5629 5631 5631 5632 5631 5631 5630 5629 5629
5549 5551 5553 5555 5557 5558 5559 5561 5563 5565 5567 5570 5572 5575 5577 5580 5583 5585 5587 5590 5592 5594 5596 5598 5600 5602 5604 5606 5607 5608 5610 5611 5614 5615 5615 5617 5617 5617 5617 5616 5616 5615 5614
5537 5539 5541 5543 5544 5546 5547 5548 5550 5552 5555 5557 5559 5561 5564 5566 5569 5570 5573 5575 5577 5580 5582 5584 5586 5588 5590 5591 5593 5594 5595 5597 5598 5601 5601 5602 5603 5602 5603 5603 5601 5601 5599